Wind_Speed
5 5 5 5 5 5 6 6 6 6 6 6 6 6 7 7 7 6 6 6 6 6 7 7 8 8 8 7 7 7 6 7 6 6 5 5 5 6 5 5 5 5 5
5 5 5 5 5 5 6 6 6 6 6 6 7 7 6 7 7 7 7 6 7 7 7 8 8 8 7 7 7 6 6 6 6 5 6 5 5 6 6 6 6 5 6
4 4 4 5 5 5 5 5 5 6 7 6 6 6 7 7 7 7 7 7 7 7 8 8 7 7 7 7 6 6 6 5 5 5 5 5 6 6 6 6 6 6 6
4 5 5 5 5 5 5 4 4 5 7 6 6 6 6 7 7 6 6 7 7 8 8 8 7 7 6 6 6 6 5 5 5 4 4 5 6 6 5 5 6 6 6
5 5 5 5 4 5 4 4 4 4 5 5 5 6 6 6 6 6 6 7 7 7 7 7 7 7 6 5 5 5 5 5 4 4 5 5 5 5 5 5 5 5 5
6 5 5 5 5 4 4 4 4 4 5 5 4 5 5 5 5 6 6 6 6 6 6 7 7 6 5 5 4 4 3 3 3 3 3 3 4 4 4 4 4 4 4
6 6 5 5 5 5 4 4 4 4 4 4 4 5 5 5 5 6 6 6 6 6 6 6 6 5 5 4 3 3 2 3 2 2 2 3 3 3 3 3 3 3 3
6 6 6 5 5 5 4 4 3 3 4 4 4 4 4 5 4 5 5 6 6 6 6 5 5 5 4 3 3 2 2 2 2 3 3 3 3 3 2 2 3 3 2
6 6 6 5 5 5 5 4 4 4 4 4 4 4 4 4 4 4 5 5 5 5 5 5 5 4 4 4 3 3 3 3 3 3 3 3 3 3 3 3 2 2 2
7 6 6 5 5 5 5 4 4 3 3 3 3 3 3 3 3 3 4 4 4 4 4 4 4 4 4 3 3 3 4 4 4 3 3 2 3 3 3 3 3 2 1
8 7 6 6 5 5 4 4 3 3 2 2 2 3 3 4 3 3 3 4 4 4 4 4 3 4 4 3 3 3 3 3 3 3 3 2 2 2 2 2 2 1 1
8 7 7 6 6 6 5 4 4 3 3 3 3 3 4 4 3 3 4 4 4 4 4 4 4 3 3 3 2 2 2 2 2 3 2 2 2 3 2 2 2 2 2
9 7 7 7 7 7 6 5 4 4 4 4 4 4 4 3 4 4 4 4 4 4 5 4 3 3 3 2 2 2 2 2 2 2 2 2 2 2 3 3 2 3 3
9 9 8 7 7 8 7 6 5 5 5 5 5 4 4 4 4 4 4 4 4 4 4 3 2 2 2 1 1 1 1 2 2 1 2 2 2 2 2 2 2 3 3
9 9 8 7 7 7 7 6 5 4 4 4 4 4 4 4 4 3 3 3 3 4 3 2 2 1 1 0 1 1 1 1 1 0 1 2 2 3 2 2 2 3 3
9 9 8 8 7 7 6 5 5 4 4 4 3 3 3 3 3 3 2 3 3 2 2 2 1 1 0 0 1 2 2 1 1 2 2 3 3 3 3 2 3 3 4
9 9 9 8 7 6 6 5 4 3 3 3 3 3 3 2 2 2 2 2 2 2 2 2 1 1 1 1 1 2 2 2 2 2 3 3 3 3 3 3 4 4 5
9 9 9 9 8 7 7 5 4 3 2 2 2 2 2 2 2 1 2 2 2 2 2 2 2 2 2 2 2 3 3 4 3 3 3 3 3 3 4 4 5 5 5
9 9 9 9 8 7 7 6 5 4 3 2 2 2 2 2 2 2 3 3 2 2 1 2 2 2 3 2 3 3 4 4 5 4 4 4 4 4 4 5 6 6 6
8 9 9 8 8 8 6 6 5 5 4 3 3 3 4 4 4 3 4 4 3 3 2 2 2 3 3 3 3 4 5 5 5 5 5 5 5 6 6 6 7 7 7
8 9 9 8 7 7 7 6 5 5 5 4 4 4 5 5 5 5 5 4 4 4 4 4 4 3 3 3 4 5 5 5 6 6 6 6 6 6 6 7 7 8 8
9 9 9 8 7 7 7 7 7 6 5 5 5 5 6 6 6 6 5 5 5 5 5 6 6 5 4 5 5 5 6 7 7 7 7 7 7 7 8 8 8 8 8
10 9 9 9 8 8 8 8 7 7 6 6 7 6 7 7 7 7 6 6 6 6 7 7 7 7 6 6 7 7 7 8 9 8 8 8 9 8 8 8 8 8 9
9 9 9 10 8 8 8 8 8 7 7 8 8 8 8 8 8 7 6 7 7 8 7 7 7 7 7 8 8 8 9 9 10 10 9 9 9 8 9 9 9 9 10
9 9 9 10 9 8 9 8 9 9 9 9 9 9 9 8 8 7 7 8 8 8 8 8 8 9 9 9 10 10 10 10 10 10 10 10 9 9 9 10 11 11 11
10 10 9 9 10 9 9 9 10 10 10 10 10 10 10 10 9 8 8 8 8 9 10 9 10 10 11 11 11 11 11 11 11 11 10 10 11 10 10 12 12 13 13
Wind_Direction
81 81 85 84 76 94 130 132 129 130 128 127 126 127 130 132 131 128 126 129 128 124 122 121 120 114 112 104 106 101 98 97 95 96 93 89 87 87 84 80 67 63 61
74 77 81 85 86 105 122 132 135 134 136 133 128 123 123 127 129 128 126 131 128 124 125 124 119 120 115 113 112 105 97 95 91 93 89 87 86 85 83 80 71 66 64
72 81 83 90 91 103 117 130 140 142 141 134 130 125 117 118 128 127 122 124 125 126 127 124 122 125 115 110 113 110 102 93 89 93 88 88 85 82 79 76 75 76 73
78 83 86 90 89 95 111 125 133 141 141 131 124 120 120 121 127 125 118 121 126 128 128 125 125 129 125 117 118 114 107 97 90 87 85 92 87 87 85 82 81 77 73
79 79 82 83 81 89 101 114 127 124 127 124 118 117 117 119 120 124 124 124 126 125 127 123 127 131 129 126 124 113 101 94 92 86 81 85 86 84 82 82 80 73 70
74 73 75 76 76 77 76 82 114 117 113 115 113 118 118 122 121 123 125 128 130 128 126 129 127 128 131 130 126 115 101 95 95 88 96 83 78 72 72 77 74 75 74
69 66 61 69 74 77 75 76 101 121 117 118 114 115 116 122 122 124 121 130 134 133 131 133 130 130 132 127 123 115 96 91 84 81 94 87 74 64 68 72 73 79 76
57 56 60 68 70 68 68 70 91 118 127 123 112 109 117 121 120 124 118 126 129 131 133 135 132 135 135 123 114 102 99 89 65 73 76 76 64 57 60 64 72 77 65
54 54 56 65 65 63 60 65 91 114 118 119 112 113 115 122 123 122 122 120 124 131 134 133 129 127 120 110 97 85 78 83 79 72 65 66 59 57 51 56 65 65 56
55 57 57 56 58 63 62 65 80 100 109 116 116 110 105 117 133 126 120 121 118 126 134 134 127 125 118 108 101 92 82 79 73 63 50 40 44 51 61 55 50 49 56
55 57 56 55 60 58 53 64 71 85 108 112 115 111 101 106 116 124 119 119 119 121 127 129 126 126 119 112 102 97 85 81 79 69 49 38 39 46 42 39 36 35 21
54 54 52 52 56 49 45 57 61 70 77 91 88 99 97 96 107 120 118 114 118 118 118 118 123 126 126 117 107 98 87 86 73 58 55 42 50 51 39 19 22 19 356
50 46 44 42 44 45 47 58 64 72 75 84 88 95 103 106 104 110 114 109 104 105 109 112 118 123 125 121 113 103 84 69 57 55 52 39 37 29 16 8 2 1 349
44 39 37 36 37 44 49 57 61 63 72 78 83 92 99 106 104 103 105 110 95 92 104 113 115 114 129 132 103 93 72 48 75 64 26 29 13 357 350 1 3 358 356
37 33 29 29 33 39 44 47 51 60 70 78 82 84 87 101 112 106 97 93 90 97 98 119 130 115 128 283 39 51 33 12 37 26 353 0 349 336 323 335 335 335 343
29 28 25 25 25 29 34 37 43 58 64 68 65 63 72 92 101 99 90 75 76 81 80 77 76 66 339 319 15 6 357 341 346 316 309 324 337 332 309 310 315 313 323
23 20 17 15 16 16 16 22 29 43 51 49 45 49 58 80 87 92 65 51 43 39 30 21 7 41 18 358 357 358 360 346 332 317 309 306 319 322 317 308 316 313 314
15 14 10 8 10 8 11 11 10 16 24 25 33 33 47 47 43 47 28 13 6 14 12 1 332 318 331 351 357 354 352 343 319 322 321 317 316 321 315 313 312 313 312
3 3 2 2 2 360 2 6 9 8 3 344 341 360 1 2 1 343 341 333 332 323 325 338 346 334 338 359 4 351 344 336 334 322 323 316 315 316 315 313 314 312 310
354 353 352 351 353 354 353 354 347 343 340 333 325 329 334 336 332 322 322 316 314 311 306 321 321 327 335 345 343 334 329 327 331 327 315 311 311 307 312 313 313 311 307
347 346 345 341 340 342 345 339 331 327 326 329 333 328 326 321 313 303 302 301 302 304 305 305 308 312 323 324 325 325 323 321 322 323 316 312 309 310 312 314 314 311 308
334 336 338 334 327 330 335 340 332 323 324 322 321 318 317 314 308 300 293 294 296 301 303 301 305 310 312 310 313 314 315 318 315 314 312 311 310 312 313 312 312 311 308
324 325 331 329 323 324 325 328 329 321 315 314 314 312 313 313 306 302 291 291 288 292 295 297 298 300 303 305 309 307 309 312 312 309 309 309 309 308 310 313 315 314 310
316 318 326 325 320 321 322 321 320 323 314 313 311 306 305 305 301 296 292 293 296 298 295 297 300 296 297 299 306 309 309 308 311 310 307 311 315 315 314 314 315 314 308
308 315 319 321 319 320 319 315 312 316 319 314 310 305 298 297 295 291 287 286 292 296 295 297 300 298 295 297 301 304 305 306 308 309 306 309 314 315 313 311 310 311 310
301 303 305 308 310 313 313 312 312 316 319 316 312 304 296 291 289 288 290 289 290 295 300 300 299 296 295 295 298 298 300 301 304 305 304 309 310 309 309 307 306 307 306
Height
5880 5880 5879 5878 5876 5873 5875 5878 5880 5880 5881 5882 5882 5882 5882 5883 5883 5883 5884 5885 5885 5886 5887 5887 5888 5888 5889 5889 5889 5890 5891 5892 5892 5893 5893 5894 5894 5894 5895 5895 5896 5896 5896
5882 5881 5881 5880 5879 5878 5879 5880 5881 5882 5882 5883 5883 5883 5883 5884 5884 5885 5885 5886 5886 5887 5888 5888 5889 5889 5890 5890 5891 5892 5892 5893 5894 5894 5894 5895 5895 5896 5896 5896 5897 5897 5897
5883 5882 5882 5882 5881 5881 5882 5882 5882 5883 5883 5884 5884 5884 5884 5884 5885 5886 5886 5887 5887 5888 5889 5890 5890 5891 5891 5892 5892 5893 5894 5894 5895 5895 5895 5896 5896 5896 5897 5897 5898 5898 5898
5884 5884 5883 5883 5883 5883 5883 5884 5884 5884 5885 5885 5885 5885 5885 5886 5886 5887 5888 5888 5889 5889 5890 5891 5891 5892 5892 5893 5893 5894 5895 5896 5896 5896 5896 5897 5897 5897 5898 5898 5899 5899 5899
5885 5885 5884 5884 5884 5885 5885 5885 5885 5885 5886 5886 5887 5887 5887 5887 5888 5888 5888 5889 5890 5891 5892 5892 5892 5893 5894 5894 5895 5895 5896 5897 5897 5897 5898 5898 5898 5899 5899 5899 5900 5900 5900
5887 5886 5886 5886 5886 5886 5886 5886 5886 5886 5887 5887 5888 5888 5889 5889 5889 5889 5890 5891 5891 5892 5893 5893 5894 5894 5895 5896 5896 5897 5897 5898 5898 5899 5899 5899 5899 5900 5900 5900 5900 5900 5901
5888 5887 5887 5887 5887 5887 5887 5887 5887 5887 5888 5888 5889 5889 5890 5890 5890 5891 5891 5892 5892 5893 5894 5894 5894 5895 5896 5897 5897 5898 5898 5898 5899 5899 5900 5900 5900 5901 5901 5901 5901 5901 5901
5889 5889 5888 5888 5888 5888 5888 5888 5888 5888 5888 5889 5890 5890 5891 5891 5891 5892 5892 5892 5893 5894 5894 5895 5896 5896 5897 5898 5898 5899 5899 5899 5900 5900 5900 5900 5901 5901 5901 5901 5901 5902 5902
5891 5890 5890 5890 5890 5890 5889 5889 5889 5889 5889 5890 5891 5891 5891 5892 5892 5892 5893 5893 5894 5895 5895 5896 5897 5897 5898 5899 5899 5899 5900 5900 5900 5900 5900 5900 5901 5901 5901 5901 5901 5902 5902
5893 5892 5892 5892 5891 5891 5891 5890 5890 5890 5890 5891 5891 5892 5892 5892 5893 5893 5894 5894 5895 5895 5896 5897 5897 5898 5899 5899 5900 5900 5900 5901 5901 5901 5900 5900 5901 5901 5901 5901 5902 5902 5902
5895 5894 5894 5893 5893 5892 5892 5891 5891 5891 5891 5891 5892 5892 5893 5893 5894 5894 5894 5895 5896 5896 5897 5897 5898 5899 5899 5900 5900 5900 5901 5901 5902 5901 5901 5901 5901 5901 5902 5902 5902 5902 5902
5897 5896 5896 5895 5894 5893 5893 5892 5892 5892 5891 5891 5892 5893 5893 5894 5894 5895 5895 5896 5896 5897 5897 5898 5899 5899 5900 5900 5901 5901 5901 5901 5901 5901 5901 5901 5901 5902 5902 5902 5902 5902 5902
5899 5898 5897 5896 5896 5895 5894 5894 5894 5893 5892 5892 5893 5894 5894 5895 5895 5896 5896 5897 5897 5898 5898 5899 5899 5900 5900 5901 5901 5901 5901 5901 5901 5901 5901 5901 5901 5902 5902 5902 5902 5902 5902
5900 5900 5899 5898 5897 5896 5896 5895 5895 5895 5895 5895 5895 5896 5896 5896 5897 5897 5898 5898 5898 5899 5899 5900 5900 5900 5901 5901 5901 5901 5901 5901 5901 5901 5901 5901 5902 5902 5902 5902 5902 5902 5902
5902 5902 5901 5900 5899 5898 5897 5897 5897 5897 5897 5897 5897 5897 5897 5897 5898 5898 5899 5899 5900 5900 5900 5900 5901 5901 5901 5901 5901 5901 5901 5901 5901 5901 5902 5902 5902 5902 5902 5902 5901 5901 5901
5904 5904 5903 5902 5901 5900 5899 5899 5899 5898 5898 5898 5898 5898 5898 5899 5899 5899 5900 5900 5900 5901 5901 5901 5901 5901 5901 5901 5901 5901 5901 5902 5902 5902 5901 5901 5902 5901 5901 5901 5901 5901 5901
5906 5905 5904 5903 5902 5902 5901 5900 5900 5900 5900 5900 5900 5900 5900 5900 5900 5900 5900 5901 5901 5901 5901 5901 5900 5901 5901 5901 5901 5901 5901 5901 5901 5902 5901 5901 5901 5901 5901 5900 5900 5900 5900
5907 5907 5906 5905 5904 5903 5902 5902 5901 5901 5901 5901 5901 5901 5901 5901 5901 5901 5901 5901 5901 5901 5901 5901 5901 5901 5901 5901 5901 5901 5901 5901 5901 5901 5901 5901 5900 5900 5900 5900 5899 5899 5899
5908 5908 5907 5906 5905 5904 5904 5903 5903 5902 5902 5902 5902 5902 5902 5902 5902 5902 5902 5902 5902 5902 5902 5902 5902 5901 5901 5901 5901 5901 5901 5901 5901 5900 5900 5900 5900 5900 5899 5899 5898 5898 5898
5909 5908 5907 5906 5906 5905 5904 5904 5904 5903 5903 5903 5903 5903 5903 5902 5902 5902 5902 5902 5902 5902 5902 5902 5901 5901 5901 5901 5901 5901 5901 5901 5900 5900 5899 5899 5899 5899 5898 5898 5897 5897 5897
5909 5908 5907 5906 5906 5905 5905 5904 5904 5904 5903 5903 5903 5903 5903 5903 5902 5902 5902 5902 5902 5902 5901 5901 5901 5901 5901 5901 5901 5901 5900 5900 5900 5899 5898 5898 5898 5897 5897 5896 5896 5895 5895
5909 5908 5907 5906 5906 5905 5905 5904 5904 5903 5903 5903 5903 5903 5902 5902 5902 5902 5901 5901 5901 5901 5901 5901 5901 5901 5901 5901 5901 5900 5900 5900 5899 5898 5898 5897 5896 5896 5895 5895 5894 5893 5893
5908 5907 5906 5906 5905 5904 5904 5904 5903 5903 5903 5903 5902 5902 5902 5901 5901 5901 5900 5900 5900 5900 5900 5900 5900 5900 5900 5900 5899 5899 5899 5898 5897 5897 5896 5896 5895 5894 5894 5893 5892 5892 5891
5907 5906 5905 5905 5904 5904 5903 5903 5902 5902 5902 5902 5901 5901 5900 5900 5900 5900 5899 5899 5899 5899 5899 5899 5899 5899 5899 5898 5898 5898 5897 5897 5896 5895 5895 5894 5893 5893 5892 5891 5890 5890 5889
5906 5905 5905 5904 5903 5903 5903 5902 5902 5901 5900 5900 5900 5899 5899 5899 5899 5898 5898 5898 5898 5898 5898 5897 5897 5897 5897 5897 5896 5896 5895 5895 5894 5894 5893 5892 5891 5890 5890 5889 5889 5888 5887
5904 5904 5904 5903 5902 5902 5901 5901 5900 5900 5899 5898 5898 5898 5897 5897 5897 5897 5896 5896 5896 5896 5896 5895 5895 5895 5895 5895 5894 5894 5893 5892 5892 5891 5890 5890 5889 5888 5887 5887 5886 5885 5884